Location: Sternwarte_Laufen
(47.9344°N, 12.9346°E)
Time: 19:33:31
(UTC+02:00)

OTV 5 (USA 277) - Visible Passes

Search period start: 27 May 2018 00:00
Search period end: 06 June 2018 00:00
Orbit: 308 x 326 km, 54.5° (Epoch: 06 May)

Date Brightness Start Highest point End Pass type
(mag) Time Alt. Az. Time Alt. Az. Time Alt. Az.
01 Jun ? 04:02:04 12° S 04:03:59 22° SE 04:06:14 10° E visible
02 Jun ? 04:15:49 12° SW 04:18:15 52° SE 04:20:58 10° ENE visible
03 Jun ? 02:58:40 15° SE 02:58:40 15° SE 03:00:19 10° E visible
03 Jun ? 04:29:54 10° WSW 04:32:39 68° NNW 04:35:25 10° NE visible
04 Jun ? 03:12:19 30° SSE 03:12:51 33° SE 03:15:23 10° ENE visible
05 Jun ? 03:25:54 28° SW 03:27:10 80° SSE 03:29:56 10° ENE visible
